Year,Month,Day,Hour,Minute,Value (Times are PST for temperature in C)
2016,04,17,00,00,10.30
2016,04,17,00,01,10.30
2016,04,17,00,02,10.30
2016,04,17,00,03,10.30
2016,04,17,00,04,10.30
2016,04,17,00,05,10.30
2016,04,17,00,06,10.30
2016,04,17,00,07,10.30
2016,04,17,00,08,10.30
2016,04,17,00,09,10.30
2016,04,17,00,10,10.30
2016,04,17,00,11,10.30
2016,04,17,00,12,10.30
2016,04,17,00,13,10.30
2016,04,17,00,14,10.30
2016,04,17,00,15,10.30
2016,04,17,00,16,10.20
2016,04,17,00,17,10.20
2016,04,17,00,18,10.20
2016,04,17,00,19,10.20
2016,04,17,00,20,10.20
2016,04,17,00,21,10.20
2016,04,17,00,22,10.20
2016,04,17,00,23,10.20
2016,04,17,00,24,10.10
2016,04,17,00,25,10.10
2016,04,17,00,26,10.10
2016,04,17,00,27,10.10
2016,04,17,00,28,10.10
2016,04,17,00,29,10.00
2016,04,17,00,30,10.00
2016,04,17,00,31,10.00
2016,04,17,00,32,9.90
2016,04,17,00,33,9.90
2016,04,17,00,34,9.90
2016,04,17,00,35,9.90
2016,04,17,00,36,9.90
2016,04,17,00,37,9.90
2016,04,17,00,38,9.90
2016,04,17,00,39,9.90
2016,04,17,00,40,9.90
2016,04,17,00,41,9.80
2016,04,17,00,42,9.80
2016,04,17,00,43,9.80
2016,04,17,00,44,9.80
2016,04,17,00,45,9.80
2016,04,17,00,46,9.80
2016,04,17,00,47,9.80
2016,04,17,00,48,9.80
2016,04,17,00,49,9.70
2016,04,17,00,50,9.70
2016,04,17,00,51,9.80
2016,04,17,00,52,9.80
2016,04,17,00,53,9.80
2016,04,17,00,54,9.80
2016,04,17,00,55,9.80
2016,04,17,00,56,9.80
2016,04,17,00,57,9.80
2016,04,17,00,58,9.80
2016,04,17,00,59,9.80
2016,04,17,01,00,9.80
2016,04,17,01,01,9.80
2016,04,17,01,02,9.80
2016,04,17,01,03,9.80
2016,04,17,01,04,9.70
2016,04,17,01,05,9.70
2016,04,17,01,06,9.70
2016,04,17,01,07,9.70
2016,04,17,01,08,9.70
2016,04,17,01,09,9.70
2016,04,17,01,10,9.70
2016,04,17,01,11,9.70
2016,04,17,01,12,9.70
2016,04,17,01,13,9.70
2016,04,17,01,14,9.70
2016,04,17,01,15,9.60
2016,04,17,01,16,9.60
2016,04,17,01,17,9.60
2016,04,17,01,18,9.60
2016,04,17,01,19,9.60
2016,04,17,01,20,9.60
2016,04,17,01,21,9.60
2016,04,17,01,22,9.60
2016,04,17,01,23,9.60
2016,04,17,01,24,9.60
2016,04,17,01,25,9.60
2016,04,17,01,26,9.60
2016,04,17,01,27,9.60
2016,04,17,01,28,9.50
2016,04,17,01,29,9.50
2016,04,17,01,30,9.50
2016,04,17,01,31,9.50
2016,04,17,01,32,9.50
2016,04,17,01,33,9.40
2016,04,17,01,34,9.40
2016,04,17,01,35,9.40
2016,04,17,01,36,9.40
2016,04,17,01,37,9.40
2016,04,17,01,38,9.40
2016,04,17,01,39,9.40
2016,04,17,01,40,9.30
2016,04,17,01,41,9.30
2016,04,17,01,42,9.30
2016,04,17,01,43,9.30
2016,04,17,01,44,9.30
2016,04,17,01,45,9.20
2016,04,17,01,46,9.20
2016,04,17,01,47,9.20
2016,04,17,01,48,9.20
2016,04,17,01,49,9.20
2016,04,17,01,50,9.10
2016,04,17,01,51,9.10
2016,04,17,01,52,9.10
2016,04,17,01,53,9.10
2016,04,17,01,54,9.10
2016,04,17,01,55,9.00
2016,04,17,01,56,9.00
2016,04,17,01,57,8.90
2016,04,17,01,58,8.90
2016,04,17,01,59,8.90
2016,04,17,02,00,8.90
2016,04,17,02,01,8.90
2016,04,17,02,02,8.80
2016,04,17,02,03,8.80
2016,04,17,02,04,8.80
2016,04,17,02,05,8.80
2016,04,17,02,06,8.80
2016,04,17,02,07,8.80
2016,04,17,02,08,8.70
2016,04,17,02,09,8.70
2016,04,17,02,10,8.70
2016,04,17,02,11,8.70
2016,04,17,02,12,8.70
2016,04,17,02,13,8.70
2016,04,17,02,14,8.70
2016,04,17,02,15,8.70
2016,04,17,02,16,8.70
2016,04,17,02,17,8.70
2016,04,17,02,18,8.70
2016,04,17,02,19,8.60
2016,04,17,02,20,8.70
2016,04,17,02,21,8.70
2016,04,17,02,22,8.60
2016,04,17,02,23,8.60
2016,04,17,02,24,8.60
2016,04,17,02,25,8.60
2016,04,17,02,26,8.60
2016,04,17,02,27,8.60
2016,04,17,02,28,8.60
2016,04,17,02,29,8.60
2016,04,17,02,30,8.60
2016,04,17,02,31,8.60
2016,04,17,02,32,8.60
2016,04,17,02,33,8.50
2016,04,17,02,34,8.50
2016,04,17,02,35,8.50
2016,04,17,02,36,8.40
2016,04,17,02,37,8.40
2016,04,17,02,38,8.40
2016,04,17,02,39,8.40
2016,04,17,02,40,8.40
2016,04,17,02,41,8.30
2016,04,17,02,42,8.30
2016,04,17,02,43,8.30
2016,04,17,02,44,8.30
2016,04,17,02,45,8.30
2016,04,17,02,46,8.30
2016,04,17,02,47,8.30
2016,04,17,02,48,8.20
2016,04,17,02,49,8.20
2016,04,17,02,50,8.20
2016,04,17,02,51,8.20
2016,04,17,02,52,8.20
2016,04,17,02,53,8.20
2016,04,17,02,54,8.20
2016,04,17,02,55,8.20
2016,04,17,02,56,8.20
2016,04,17,02,57,8.20
2016,04,17,02,58,8.20
2016,04,17,02,59,8.10
2016,04,17,03,00,8.10
2016,04,17,03,01,8.10
2016,04,17,03,02,8.10
2016,04,17,03,03,8.10
2016,04,17,03,04,8.10
2016,04,17,03,05,8.10
2016,04,17,03,06,8.10
2016,04,17,03,07,8.10
2016,04,17,03,08,8.10
2016,04,17,03,09,8.10
2016,04,17,03,10,8.10
2016,04,17,03,11,8.10
2016,04,17,03,12,8.10
2016,04,17,03,13,8.10
2016,04,17,03,14,8.10
2016,04,17,03,15,8.10
2016,04,17,03,16,8.10
2016,04,17,03,17,8.10
2016,04,17,03,18,8.10
2016,04,17,03,19,8.10
2016,04,17,03,20,8.10
2016,04,17,03,21,8.20
2016,04,17,03,22,8.20
2016,04,17,03,23,8.20
2016,04,17,03,24,8.20
2016,04,17,03,25,8.20
2016,04,17,03,26,8.20
2016,04,17,03,27,8.20
2016,04,17,03,28,8.20
2016,04,17,03,29,8.10
2016,04,17,03,30,8.10
2016,04,17,03,31,8.10
2016,04,17,03,32,8.10
2016,04,17,03,33,8.10
2016,04,17,03,34,8.00
2016,04,17,03,35,8.00
2016,04,17,03,36,8.00
2016,04,17,03,37,8.00
2016,04,17,03,38,8.00
2016,04,17,03,39,7.90
2016,04,17,03,40,7.90
2016,04,17,03,41,7.90
2016,04,17,03,42,7.90
2016,04,17,03,43,7.90
2016,04,17,03,44,7.80
2016,04,17,03,45,7.80
2016,04,17,03,46,7.80
2016,04,17,03,47,7.80
2016,04,17,03,48,7.80
2016,04,17,03,49,7.80
2016,04,17,03,50,7.80
2016,04,17,03,51,7.80
2016,04,17,03,52,7.80
2016,04,17,03,53,7.80
2016,04,17,03,54,7.80
2016,04,17,03,55,7.80
2016,04,17,03,56,7.80
2016,04,17,03,57,7.80
2016,04,17,03,58,7.80
2016,04,17,03,59,7.80
2016,04,17,04,00,7.80
2016,04,17,04,01,7.70
2016,04,17,04,02,7.70
2016,04,17,04,03,7.70
2016,04,17,04,04,7.70
2016,04,17,04,05,7.70
2016,04,17,04,06,7.70
2016,04,17,04,07,7.70
2016,04,17,04,08,7.70
2016,04,17,04,09,7.70
2016,04,17,04,10,7.60
2016,04,17,04,11,7.60
2016,04,17,04,12,7.60
2016,04,17,04,13,7.60
2016,04,17,04,14,7.60
2016,04,17,04,15,7.60
2016,04,17,04,16,7.60
2016,04,17,04,17,7.60
2016,04,17,04,18,7.60
2016,04,17,04,19,7.60
2016,04,17,04,20,7.60
2016,04,17,04,21,7.60
2016,04,17,04,22,7.60
2016,04,17,04,23,7.60
2016,04,17,04,24,7.60
2016,04,17,04,25,7.60
2016,04,17,04,26,7.60
2016,04,17,04,27,7.60
2016,04,17,04,28,7.60
2016,04,17,04,29,7.60
2016,04,17,04,30,7.60
2016,04,17,04,31,7.60
2016,04,17,04,32,7.60
2016,04,17,04,33,7.60
2016,04,17,04,34,7.60
2016,04,17,04,35,7.60
2016,04,17,04,36,7.60
2016,04,17,04,37,7.60
2016,04,17,04,38,7.60
2016,04,17,04,39,7.60
2016,04,17,04,40,7.70
2016,04,17,04,41,7.70
2016,04,17,04,42,7.70
2016,04,17,04,43,7.70
2016,04,17,04,44,7.60
2016,04,17,04,45,7.60
2016,04,17,04,46,7.60
2016,04,17,04,47,7.60
2016,04,17,04,48,7.60
2016,04,17,04,49,7.60
2016,04,17,04,50,7.60
2016,04,17,04,51,7.60
2016,04,17,04,52,7.60
2016,04,17,04,53,7.60
2016,04,17,04,54,7.60
2016,04,17,04,55,7.60
2016,04,17,04,56,7.60
2016,04,17,04,57,7.60
2016,04,17,04,58,7.60
2016,04,17,04,59,7.60
2016,04,17,05,00,7.60
2016,04,17,05,01,7.60
2016,04,17,05,02,7.60
2016,04,17,05,03,7.60
2016,04,17,05,04,7.60
2016,04,17,05,05,7.70
2016,04,17,05,06,7.70
2016,04,17,05,07,7.70
2016,04,17,05,08,7.70
2016,04,17,05,09,7.80
2016,04,17,05,10,7.80
2016,04,17,05,11,7.80
2016,04,17,05,12,7.80
2016,04,17,05,13,7.80
2016,04,17,05,14,7.80
2016,04,17,05,15,7.80
2016,04,17,05,16,7.80
2016,04,17,05,17,7.80
2016,04,17,05,18,7.80
2016,04,17,05,19,7.80
2016,04,17,05,20,7.80
2016,04,17,05,21,7.80
2016,04,17,05,22,7.80
2016,04,17,05,23,7.80
2016,04,17,05,24,7.80
2016,04,17,05,25,7.90
2016,04,17,05,26,7.90
2016,04,17,05,27,7.90
2016,04,17,05,28,7.90
2016,04,17,05,29,7.90
2016,04,17,05,30,7.90
2016,04,17,05,31,7.90
2016,04,17,05,32,7.90
2016,04,17,05,33,8.00
2016,04,17,05,34,8.00
2016,04,17,05,35,8.10
2016,04,17,05,36,8.10
2016,04,17,05,37,8.20
2016,04,17,05,38,8.30
2016,04,17,05,39,8.30
2016,04,17,05,40,8.30
2016,04,17,05,41,8.40
2016,04,17,05,42,8.40
2016,04,17,05,43,8.50
2016,04,17,05,44,8.50
2016,04,17,05,45,8.60
2016,04,17,05,46,8.70
2016,04,17,05,47,8.70
2016,04,17,05,48,8.80
2016,04,17,05,49,8.80
2016,04,17,05,50,8.90
2016,04,17,05,51,9.00
2016,04,17,05,52,9.00
2016,04,17,05,53,9.10
2016,04,17,05,54,9.10
2016,04,17,05,55,9.10
2016,04,17,05,56,9.20
2016,04,17,05,57,9.20
2016,04,17,05,58,9.20
2016,04,17,05,59,9.30
2016,04,17,06,00,9.30
2016,04,17,06,01,9.30
2016,04,17,06,02,9.30
2016,04,17,06,03,9.30
2016,04,17,06,04,9.30
2016,04,17,06,05,9.30
2016,04,17,06,06,9.30
2016,04,17,06,07,9.30
2016,04,17,06,08,9.40
2016,04,17,06,09,9.40
2016,04,17,06,10,9.40
2016,04,17,06,11,9.40
2016,04,17,06,12,9.30
2016,04,17,06,13,9.30
2016,04,17,06,14,9.30
2016,04,17,06,15,9.30
2016,04,17,06,16,9.30
2016,04,17,06,17,9.30
2016,04,17,06,18,9.30
2016,04,17,06,19,9.30
2016,04,17,06,20,9.30
2016,04,17,06,21,9.30
2016,04,17,06,22,9.30
2016,04,17,06,23,9.30
2016,04,17,06,24,9.20
2016,04,17,06,25,9.20
2016,04,17,06,26,9.20
2016,04,17,06,27,9.10
2016,04,17,06,28,9.10
2016,04,17,06,29,9.10
2016,04,17,06,30,9.00
2016,04,17,06,31,9.00
2016,04,17,06,32,9.00
2016,04,17,06,33,8.90
2016,04,17,06,34,8.90
2016,04,17,06,35,9.00
2016,04,17,06,36,9.00
2016,04,17,06,37,9.00
2016,04,17,06,38,9.00
2016,04,17,06,39,9.00
2016,04,17,06,40,9.00
2016,04,17,06,41,9.00
2016,04,17,06,42,9.00
2016,04,17,06,43,9.00
2016,04,17,06,44,9.00
2016,04,17,06,45,9.00
2016,04,17,06,46,9.00
2016,04,17,06,47,9.00
2016,04,17,06,48,9.10
2016,04,17,06,49,9.10
2016,04,17,06,50,9.10
2016,04,17,06,51,9.10
2016,04,17,06,52,9.10
2016,04,17,06,53,9.10
2016,04,17,06,54,9.20
2016,04,17,06,55,9.20
2016,04,17,06,56,9.20
2016,04,17,06,57,9.20
2016,04,17,06,58,9.20
2016,04,17,06,59,9.20
2016,04,17,07,00,9.20
2016,04,17,07,01,9.20
2016,04,17,07,02,9.20
2016,04,17,07,03,9.20
2016,04,17,07,04,9.20
2016,04,17,07,05,9.20
2016,04,17,07,06,9.20
2016,04,17,07,07,9.20
2016,04,17,07,08,9.20
2016,04,17,07,09,9.20
2016,04,17,07,10,9.20
2016,04,17,07,11,9.30
2016,04,17,07,12,9.30
2016,04,17,07,13,9.30
2016,04,17,07,14,9.30
2016,04,17,07,15,9.30
2016,04,17,07,16,9.30
2016,04,17,07,17,9.30
2016,04,17,07,18,9.40
2016,04,17,07,19,9.40
2016,04,17,07,20,9.50
2016,04,17,07,21,9.60
2016,04,17,07,22,9.60
2016,04,17,07,23,9.70
2016,04,17,07,24,9.80
2016,04,17,07,25,9.90
2016,04,17,07,26,10.00
2016,04,17,07,27,10.10
2016,04,17,07,28,10.20
2016,04,17,07,29,10.30
2016,04,17,07,30,10.50
2016,04,17,07,31,10.60
2016,04,17,07,32,10.70
2016,04,17,07,33,10.80
2016,04,17,07,34,10.90
2016,04,17,07,35,11.00
2016,04,17,07,36,11.10
2016,04,17,07,37,11.20
2016,04,17,07,38,11.30
2016,04,17,07,39,11.40
2016,04,17,07,40,11.50
2016,04,17,07,41,11.60
2016,04,17,07,42,11.60
2016,04,17,07,43,11.70
2016,04,17,07,44,11.80
2016,04,17,07,45,11.90
2016,04,17,07,46,11.90
2016,04,17,07,47,12.00
2016,04,17,07,48,12.00
2016,04,17,07,49,12.10
2016,04,17,07,50,12.10
2016,04,17,07,51,12.20
2016,04,17,07,52,12.20
2016,04,17,07,53,12.30
2016,04,17,07,54,12.30
2016,04,17,07,55,12.40
2016,04,17,07,56,12.40
2016,04,17,07,57,12.50
2016,04,17,07,58,12.60
2016,04,17,07,59,12.60
2016,04,17,08,00,12.60
2016,04,17,08,01,12.70
2016,04,17,08,02,12.70
2016,04,17,08,03,12.80
2016,04,17,08,04,12.80
2016,04,17,08,05,12.80
2016,04,17,08,06,12.90
2016,04,17,08,07,12.90
2016,04,17,08,08,12.90
2016,04,17,08,09,13.00
2016,04,17,08,10,13.00
2016,04,17,08,11,13.00
2016,04,17,08,12,13.10
2016,04,17,08,13,13.10
2016,04,17,08,14,13.10
2016,04,17,08,15,13.10
2016,04,17,08,16,13.20
2016,04,17,08,17,13.20
2016,04,17,08,18,13.20
2016,04,17,08,19,13.20
2016,04,17,08,20,13.20
2016,04,17,08,21,13.20
2016,04,17,08,22,13.20
2016,04,17,08,23,13.20
2016,04,17,08,24,13.20
2016,04,17,08,25,13.20
2016,04,17,08,26,13.20
2016,04,17,08,27,13.20
2016,04,17,08,28,13.30
2016,04,17,08,29,13.30
2016,04,17,08,30,13.30
2016,04,17,08,31,13.30
2016,04,17,08,32,13.30
2016,04,17,08,33,13.40
2016,04,17,08,34,13.40
2016,04,17,08,35,13.40
2016,04,17,08,36,13.40
2016,04,17,08,37,13.50
2016,04,17,08,38,13.50
2016,04,17,08,39,13.50
2016,04,17,08,40,13.60
2016,04,17,08,41,13.60
2016,04,17,08,42,13.60
2016,04,17,08,43,13.60
2016,04,17,08,44,13.70
2016,04,17,08,45,13.70
2016,04,17,08,46,13.80
2016,04,17,08,47,13.80
2016,04,17,08,48,13.80
2016,04,17,08,49,13.80
2016,04,17,08,50,13.80
2016,04,17,08,51,13.80
2016,04,17,08,52,13.80
2016,04,17,08,53,13.80
2016,04,17,08,54,13.80
2016,04,17,08,55,13.80
2016,04,17,08,56,13.80
2016,04,17,08,57,13.80
2016,04,17,08,58,13.90
2016,04,17,08,59,13.90
2016,04,17,09,00,13.90
2016,04,17,09,01,14.00
2016,04,17,09,02,14.10
2016,04,17,09,03,14.10
2016,04,17,09,04,14.10
2016,04,17,09,05,14.20
2016,04,17,09,06,14.20
2016,04,17,09,07,14.20
2016,04,17,09,08,14.30
2016,04,17,09,09,14.30
2016,04,17,09,10,14.30
2016,04,17,09,11,14.30
2016,04,17,09,12,14.30
2016,04,17,09,13,14.40
2016,04,17,09,14,14.40
2016,04,17,09,15,14.40
2016,04,17,09,16,14.40
2016,04,17,09,17,14.50
2016,04,17,09,18,14.50
2016,04,17,09,19,14.50
2016,04,17,09,20,14.50
2016,04,17,09,21,14.50
2016,04,17,09,22,14.50
2016,04,17,09,23,14.50
2016,04,17,09,24,14.50
2016,04,17,09,25,14.60
2016,04,17,09,26,14.60
2016,04,17,09,27,14.60
2016,04,17,09,28,14.60
2016,04,17,09,29,14.60
2016,04,17,09,30,14.60
2016,04,17,09,31,14.60
2016,04,17,09,32,14.70
2016,04,17,09,33,14.70
2016,04,17,09,34,14.70
2016,04,17,09,35,14.70
2016,04,17,09,36,14.80
2016,04,17,09,37,14.80
2016,04,17,09,38,14.80
2016,04,17,09,39,14.90
2016,04,17,09,40,14.90
2016,04,17,09,41,14.90
2016,04,17,09,42,14.80
2016,04,17,09,43,14.80
2016,04,17,09,44,14.80
2016,04,17,09,45,14.80
2016,04,17,09,46,14.90
2016,04,17,09,47,14.90
2016,04,17,09,48,14.90
2016,04,17,09,49,14.90
2016,04,17,09,50,14.90
2016,04,17,09,51,14.90
2016,04,17,09,52,14.90
2016,04,17,09,53,15.00
2016,04,17,09,54,15.00
2016,04,17,09,55,15.10
2016,04,17,09,56,15.10
2016,04,17,09,57,15.10
2016,04,17,09,58,15.10
2016,04,17,09,59,15.10
2016,04,17,10,00,15.10
2016,04,17,10,01,15.10
2016,04,17,10,02,15.10
2016,04,17,10,03,15.20
2016,04,17,10,04,15.20
2016,04,17,10,05,15.20
2016,04,17,10,06,15.30
2016,04,17,10,07,15.30
2016,04,17,10,08,15.30
2016,04,17,10,09,15.40
2016,04,17,10,10,15.40
2016,04,17,10,11,15.50
2016,04,17,10,12,15.60
2016,04,17,10,13,15.70
2016,04,17,10,14,15.70
2016,04,17,10,15,15.70
2016,04,17,10,16,15.70
2016,04,17,10,17,15.70
2016,04,17,10,18,15.80
2016,04,17,10,19,15.80
2016,04,17,10,20,15.70
2016,04,17,10,21,15.70
2016,04,17,10,22,15.70
2016,04,17,10,23,15.60
2016,04,17,10,24,15.60
2016,04,17,10,25,15.60
2016,04,17,10,26,15.60
2016,04,17,10,27,15.60
2016,04,17,10,28,15.60
2016,04,17,10,29,15.60
2016,04,17,10,30,15.60
2016,04,17,10,31,15.60
2016,04,17,10,32,15.60
2016,04,17,10,33,15.70
2016,04,17,10,34,15.70
2016,04,17,10,35,15.70
2016,04,17,10,36,15.80
2016,04,17,10,37,15.80
2016,04,17,10,38,15.80
2016,04,17,10,39,15.70
2016,04,17,10,40,15.70
2016,04,17,10,41,15.70
2016,04,17,10,42,15.70
2016,04,17,10,43,15.70
2016,04,17,10,44,15.70
2016,04,17,10,45,15.70
2016,04,17,10,46,15.70
2016,04,17,10,47,15.70
2016,04,17,10,48,15.70
2016,04,17,10,49,15.80
2016,04,17,10,50,15.80
2016,04,17,10,51,15.80
2016,04,17,10,52,15.80
2016,04,17,10,53,15.90
2016,04,17,10,54,15.90
2016,04,17,10,55,16.00
2016,04,17,10,56,16.00
2016,04,17,10,57,16.00
2016,04,17,10,58,15.90
2016,04,17,10,59,15.90
2016,04,17,11,00,15.90
2016,04,17,11,01,15.80
2016,04,17,11,02,15.80
2016,04,17,11,03,15.80
2016,04,17,11,04,15.80
2016,04,17,11,05,15.80
2016,04,17,11,06,15.90
2016,04,17,11,07,15.90
2016,04,17,11,08,15.90
2016,04,17,11,09,16.00
2016,04,17,11,10,16.00
2016,04,17,11,11,16.00
2016,04,17,11,12,16.00
2016,04,17,11,13,16.10
2016,04,17,11,14,16.10
2016,04,17,11,15,16.10
2016,04,17,11,16,16.10
2016,04,17,11,17,16.00
2016,04,17,11,18,15.90
2016,04,17,11,19,15.90
2016,04,17,11,20,15.90
2016,04,17,11,21,15.90
2016,04,17,11,22,15.90
2016,04,17,11,23,15.90
2016,04,17,11,24,15.90
2016,04,17,11,25,15.90
2016,04,17,11,26,15.90
2016,04,17,11,27,15.90
2016,04,17,11,28,15.90
2016,04,17,11,29,15.90
2016,04,17,11,30,16.00
2016,04,17,11,31,16.00
2016,04,17,11,32,16.00
2016,04,17,11,33,16.00
2016,04,17,11,34,16.00
2016,04,17,11,35,16.00
2016,04,17,11,36,15.90
2016,04,17,11,37,16.00
2016,04,17,11,38,16.00
2016,04,17,11,39,16.10
2016,04,17,11,40,16.20
2016,04,17,11,41,16.30
2016,04,17,11,42,16.40
2016,04,17,11,43,16.40
2016,04,17,11,44,16.50
2016,04,17,11,45,16.60
2016,04,17,11,46,16.60
2016,04,17,11,47,16.60
2016,04,17,11,48,16.50
2016,04,17,11,49,16.50
2016,04,17,11,50,16.60
2016,04,17,11,51,16.60
2016,04,17,11,52,16.60
2016,04,17,11,53,16.60
2016,04,17,11,54,16.60
2016,04,17,11,55,16.50
2016,04,17,11,56,16.50
2016,04,17,11,57,16.40
2016,04,17,11,58,16.40
2016,04,17,11,59,16.50
2016,04,17,12,00,16.50
2016,04,17,12,01,16.40
2016,04,17,12,02,16.40
2016,04,17,12,03,16.40
2016,04,17,12,04,16.40
2016,04,17,12,05,16.40
2016,04,17,12,06,16.40
2016,04,17,12,07,16.40
2016,04,17,12,08,16.50
2016,04,17,12,09,16.50
2016,04,17,12,10,16.50
2016,04,17,12,11,16.50
2016,04,17,12,12,16.50
2016,04,17,12,13,16.40
2016,04,17,12,14,16.50
2016,04,17,12,15,16.60
2016,04,17,12,16,16.70
2016,04,17,12,17,16.70
2016,04,17,12,18,16.80
2016,04,17,12,19,16.80
2016,04,17,12,20,16.80
2016,04,17,12,21,16.80
2016,04,17,12,22,16.80
2016,04,17,12,23,16.80
2016,04,17,12,24,16.90
2016,04,17,12,25,17.00
2016,04,17,12,26,17.10
2016,04,17,12,27,17.20
2016,04,17,12,28,17.20
2016,04,17,12,29,17.30
2016,04,17,12,30,17.30
2016,04,17,12,31,17.40
2016,04,17,12,32,17.40
2016,04,17,12,33,17.40
2016,04,17,12,34,17.40
2016,04,17,12,35,17.40
2016,04,17,12,36,17.30
2016,04,17,12,37,17.30
2016,04,17,12,38,17.30
2016,04,17,12,39,17.30
2016,04,17,12,40,17.30
2016,04,17,12,41,17.30
2016,04,17,12,42,17.30
2016,04,17,12,43,17.30
2016,04,17,12,44,17.40
2016,04,17,12,45,17.40
2016,04,17,12,46,17.40
2016,04,17,12,47,17.40
2016,04,17,12,48,17.40
2016,04,17,12,49,17.40
2016,04,17,12,50,17.40
2016,04,17,12,51,17.50
2016,04,17,12,52,17.50
2016,04,17,12,53,17.50
2016,04,17,12,54,17.50
2016,04,17,12,55,17.50
2016,04,17,12,56,17.50
2016,04,17,12,57,17.50
2016,04,17,12,58,17.50
2016,04,17,12,59,17.50
2016,04,17,13,00,17.50
2016,04,17,13,01,17.40
2016,04,17,13,02,17.40
2016,04,17,13,03,17.40
2016,04,17,13,04,17.40
2016,04,17,13,05,17.40
2016,04,17,13,06,17.50
2016,04,17,13,07,17.50
2016,04,17,13,08,17.60
2016,04,17,13,09,17.70
2016,04,17,13,10,17.80
2016,04,17,13,11,17.80
2016,04,17,13,12,17.80
2016,04,17,13,13,17.80
2016,04,17,13,14,17.80
2016,04,17,13,15,17.80
2016,04,17,13,16,17.90
2016,04,17,13,17,17.90
2016,04,17,13,18,17.90
2016,04,17,13,19,17.90
2016,04,17,13,20,17.90
2016,04,17,13,21,17.90
2016,04,17,13,22,18.00
2016,04,17,13,23,18.10
2016,04,17,13,24,18.20
2016,04,17,13,25,18.20
2016,04,17,13,26,18.20
2016,04,17,13,27,18.20
2016,04,17,13,28,18.20
2016,04,17,13,29,18.30
2016,04,17,13,30,18.40
2016,04,17,13,31,18.40
2016,04,17,13,32,18.50
2016,04,17,13,33,18.60
2016,04,17,13,34,18.60
2016,04,17,13,35,18.60
2016,04,17,13,36,18.60
2016,04,17,13,37,18.70
2016,04,17,13,38,18.70
2016,04,17,13,39,18.70
2016,04,17,13,40,18.80
2016,04,17,13,41,18.80
2016,04,17,13,42,18.90
2016,04,17,13,43,18.90
2016,04,17,13,44,18.90
2016,04,17,13,45,18.80
2016,04,17,13,46,18.80
2016,04,17,13,47,18.80
2016,04,17,13,48,18.80
2016,04,17,13,49,18.90
2016,04,17,13,50,18.90
2016,04,17,13,51,19.00
2016,04,17,13,52,18.90
2016,04,17,13,53,18.90
2016,04,17,13,54,18.90
2016,04,17,13,55,19.00
2016,04,17,13,56,19.00
2016,04,17,13,57,19.00
2016,04,17,13,58,19.00
2016,04,17,13,59,19.10
2016,04,17,14,00,19.10
2016,04,17,14,01,19.10
2016,04,17,14,02,19.00
2016,04,17,14,03,18.90
2016,04,17,14,04,18.90
2016,04,17,14,05,18.90
2016,04,17,14,06,19.00
2016,04,17,14,07,19.10
2016,04,17,14,08,19.10
2016,04,17,14,09,19.10
2016,04,17,14,10,19.20
2016,04,17,14,11,19.20
2016,04,17,14,12,19.20
2016,04,17,14,13,19.20
2016,04,17,14,14,19.20
2016,04,17,14,15,19.20
2016,04,17,14,16,19.10
2016,04,17,14,17,19.10
2016,04,17,14,18,19.20
2016,04,17,14,19,19.20
2016,04,17,14,20,19.30
2016,04,17,14,21,19.30
2016,04,17,14,22,19.40
2016,04,17,14,23,19.40
2016,04,17,14,24,19.50
2016,04,17,14,25,19.40
2016,04,17,14,26,19.40
2016,04,17,14,27,19.40
2016,04,17,14,28,19.40
2016,04,17,14,29,19.40
2016,04,17,14,30,19.40
2016,04,17,14,31,19.40
2016,04,17,14,32,19.40
2016,04,17,14,33,19.40
2016,04,17,14,34,19.40
2016,04,17,14,35,19.40
2016,04,17,14,36,19.40
2016,04,17,14,37,19.40
2016,04,17,14,38,19.40
2016,04,17,14,39,19.40
2016,04,17,14,40,19.40
2016,04,17,14,41,19.40
2016,04,17,14,42,19.40
2016,04,17,14,43,19.50
2016,04,17,14,44,19.50
2016,04,17,14,45,19.60
2016,04,17,14,46,19.70
2016,04,17,14,47,19.80
2016,04,17,14,48,19.80
2016,04,17,14,49,19.80
2016,04,17,14,50,19.80
2016,04,17,14,51,19.90
2016,04,17,14,52,19.90
2016,04,17,14,53,19.90
2016,04,17,14,54,19.90
2016,04,17,14,55,19.90
2016,04,17,14,56,19.90
2016,04,17,14,57,19.90
2016,04,17,14,58,19.80
2016,04,17,14,59,19.80
2016,04,17,15,00,19.80
2016,04,17,15,01,19.80
2016,04,17,15,02,19.90
2016,04,17,15,03,19.90
2016,04,17,15,04,20.00
2016,04,17,15,05,20.10
2016,04,17,15,06,20.20
2016,04,17,15,07,20.20
2016,04,17,15,08,20.20
2016,04,17,15,09,20.30
2016,04,17,15,10,20.30
2016,04,17,15,11,20.30
2016,04,17,15,12,20.30
2016,04,17,15,13,20.20
2016,04,17,15,14,20.20
2016,04,17,15,15,20.10
2016,04,17,15,16,20.10
2016,04,17,15,17,20.10
2016,04,17,15,18,20.00
2016,04,17,15,19,19.90
2016,04,17,15,20,19.90
2016,04,17,15,21,19.90
2016,04,17,15,22,19.90
2016,04,17,15,23,19.90
2016,04,17,15,24,19.90
2016,04,17,15,25,19.90
2016,04,17,15,26,20.00
2016,04,17,15,27,20.00
2016,04,17,15,28,20.10
2016,04,17,15,29,20.10
2016,04,17,15,30,20.10
2016,04,17,15,31,20.00
2016,04,17,15,32,20.00
2016,04,17,15,33,20.00
2016,04,17,15,34,19.90
2016,04,17,15,35,19.90
2016,04,17,15,36,20.00
2016,04,17,15,37,20.10
2016,04,17,15,38,20.10
2016,04,17,15,39,20.20
2016,04,17,15,40,20.20
2016,04,17,15,41,20.20
2016,04,17,15,42,20.30
2016,04,17,15,43,20.30
2016,04,17,15,44,20.30
2016,04,17,15,45,20.30
2016,04,17,15,46,20.30
2016,04,17,15,47,20.30
2016,04,17,15,48,20.30
2016,04,17,15,49,20.40
2016,04,17,15,50,20.40
2016,04,17,15,51,20.50
2016,04,17,15,52,20.50
2016,04,17,15,53,20.50
2016,04,17,15,54,20.60
2016,04,17,15,55,20.60
2016,04,17,15,56,20.60
2016,04,17,15,57,20.60
2016,04,17,15,58,20.50
2016,04,17,15,59,20.40
2016,04,17,16,00,20.40
2016,04,17,16,01,20.40
2016,04,17,16,02,20.40
2016,04,17,16,03,20.40
2016,04,17,16,04,20.40
2016,04,17,16,05,20.40
2016,04,17,16,06,20.50
2016,04,17,16,07,20.60
2016,04,17,16,08,20.60
2016,04,17,16,09,20.60
2016,04,17,16,10,20.60
2016,04,17,16,11,20.70
2016,04,17,16,12,20.70
2016,04,17,16,13,20.70
2016,04,17,16,14,20.60
2016,04,17,16,15,20.60
2016,04,17,16,16,20.50
2016,04,17,16,17,20.40
2016,04,17,16,18,20.40
2016,04,17,16,19,20.30
2016,04,17,16,20,20.30
2016,04,17,16,21,20.20
2016,04,17,16,22,20.20
2016,04,17,16,23,20.20
2016,04,17,16,24,20.20
2016,04,17,16,25,20.20
2016,04,17,16,26,20.20
2016,04,17,16,27,20.20
2016,04,17,16,28,20.20
2016,04,17,16,29,20.20
2016,04,17,16,30,20.10
2016,04,17,16,31,20.10
2016,04,17,16,32,20.10
2016,04,17,16,33,20.00
2016,04,17,16,34,20.10
2016,04,17,16,35,20.10
2016,04,17,16,36,20.00
2016,04,17,16,37,20.00
2016,04,17,16,38,20.00
2016,04,17,16,39,20.00
2016,04,17,16,40,20.00
2016,04,17,16,41,19.90
2016,04,17,16,42,19.90
2016,04,17,16,43,19.90
2016,04,17,16,44,19.90
2016,04,17,16,45,19.90
2016,04,17,16,46,20.00
2016,04,17,16,47,20.00
2016,04,17,16,48,20.00
2016,04,17,16,49,20.00
2016,04,17,16,50,20.10
2016,04,17,16,51,20.10
2016,04,17,16,52,20.10
2016,04,17,16,53,20.20
2016,04,17,16,54,20.20
2016,04,17,16,55,20.20
2016,04,17,16,56,20.30
2016,04,17,16,57,20.40
2016,04,17,16,58,20.40
2016,04,17,16,59,20.40
2016,04,17,17,00,20.40
2016,04,17,17,01,20.40
2016,04,17,17,02,20.30
2016,04,17,17,03,20.20
2016,04,17,17,04,20.20
2016,04,17,17,05,20.20
2016,04,17,17,06,20.20
2016,04,17,17,07,20.20
2016,04,17,17,08,20.20
2016,04,17,17,09,20.20
2016,04,17,17,10,20.20
2016,04,17,17,11,20.20
2016,04,17,17,12,20.20
2016,04,17,17,13,20.30
2016,04,17,17,14,20.20
2016,04,17,17,15,20.20
2016,04,17,17,16,20.20
2016,04,17,17,17,20.20
2016,04,17,17,18,20.30
2016,04,17,17,19,20.40
2016,04,17,17,20,20.40
2016,04,17,17,21,20.40
2016,04,17,17,22,20.40
2016,04,17,17,23,20.40
2016,04,17,17,24,20.40
2016,04,17,17,25,20.40
2016,04,17,17,26,20.40
2016,04,17,17,27,20.40
2016,04,17,17,28,20.40
2016,04,17,17,29,20.40
2016,04,17,17,30,20.50
2016,04,17,17,31,20.50
2016,04,17,17,32,20.60
2016,04,17,17,33,20.60
2016,04,17,17,34,20.60
2016,04,17,17,35,20.60
2016,04,17,17,36,20.70
2016,04,17,17,37,20.70